Weather History for KMFD - June, 2014

Change the Weather History Date:

Monday, June 9, 2014

  Actual Average Record
Temperature  
Mean Temperature 64 °F 66 °F  
Max Temperature 75 °F 76 °F 92 °F (1999)
Min Temperature 52 °F 56 °F 40 °F (1932)
Degree Days  
Heating Degree Days 1 2  
Month to date heating degree days 16 28  
Since 1 June heating degree days 16 28  
Since 1 July heating degree days 6707 6245  
Cooling Degree Days 0 3  
Month to date cooling degree days 21 27  
Year to date cooling degree days 84 73  
Since 1 June cooling degree days 21 27  
Growing Degree Days 12 (Base 50)    
Moisture  
Dew Point 55 °F    
Average Humidity 77    
Maximum Humidity 100    
Minimum Humidity 53    
Precipitation  
Precipitation 0.00 in 0.16 in - ()
Month to date precipitation 2.06 1.48  
Year to date precipitation 18.39 18.81  
Snow  
Snow 0.00 in 0.00 in - ()
Month to date snowfall 0.0 0.0  
Since 1 June snowfall 0.0 0.0  
Since 1 July snowfall 65.4 48.3  
Snow Depth 0.00 in    
Sea Level Pressure  
Sea Level Pressure 29.97 in    
Wind  
Wind Speed 6 mph (NNW)    
Max Wind Speed 14 mph    
Max Gust Speed 17 mph    
Visibility 6 miles    
Events Fog    
T = Trace of Precipitation, MM = Missing Value Source: NWS Daily Summary

Daily Weather History Graph

Daily Weather History Graph

Search for Another Location

Airport or City:

Trip Planner

Search our weather history database for the weather conditions in past years. The results will help you decide how hot, cold, wet, or windy it might be!

Date:

Astronomy

Jun. 09, 2014 Rise Set
Actual Time 5:58 AM EDT 9:00 PM EDT
Civil Twilight 5:25 AM EDT 9:33 PM EDT
Nautical Twilight 4:42 AM EDT 10:16 PM EDT
Astronomical Twilight 3:53 AM EDT 11:05 PM EDT
Moon 5:19 PM EDT (6/9) 3:26 AM EDT (6/9)
Length of Visible Light 16h 08m
Length of Day
15h 02m
Waxing Gibbous, 85% of the Moon is Illuminated
Jun 9
Waxing Gibbous
Jun 13
Full
Jun 19
Last Quarter
Jun 27
New
Jul 5
First Quarter

Hourly Weather History & Observations

Time (EDT) Temp. Dew Point Humidity Pressure Visibility Wind Dir Wind Speed Gust Speed Precip Events Conditions
12:52 AM 54.0 °F 53.1 °F 97% 29.99 in 10.0 mi NNW 5.8 mph - N/A   Clear
1:52 AM 54.0 °F 54.0 °F 100% 29.99 in 7.0 mi NW 4.6 mph - N/A   Clear
2:52 AM 54.0 °F 54.0 °F 100% 29.99 in 3.0 mi NW 3.5 mph - N/A   Clear
3:31 AM 53.6 °F 53.6 °F 100% 29.99 in 1.8 mi NW 3.5 mph - N/A   Clear
3:52 AM 53.1 °F 53.1 °F 100% 29.99 in 1.2 mi NW 4.6 mph - N/A   Clear
3:57 AM 53.6 °F 53.6 °F 100% 29.99 in 0.5 mi NW 4.6 mph - N/A Fog Fog
4:11 AM 53.6 °F 53.6 °F 100% 29.98 in 1.2 mi NNW 5.8 mph - N/A   Partly Cloudy
4:19 AM 51.8 °F 51.8 °F 100% 29.98 in 2.0 mi NNW 4.6 mph - N/A   Partly Cloudy
4:41 AM 53.6 °F 53.6 °F 100% 29.98 in 3.0 mi North 4.6 mph - N/A   Clear
4:49 AM 53.6 °F 53.6 °F 100% 29.97 in 2.0 mi North 5.8 mph - N/A   Clear
4:52 AM 52.0 °F 52.0 °F 100% 29.96 in 2.0 mi NNW 5.8 mph - N/A   Clear
4:59 AM 51.8 °F 51.8 °F 100% 29.97 in 0.8 mi NNW 5.8 mph - N/A   Clear
5:07 AM 51.8 °F 51.8 °F 100% 29.97 in 0.5 mi NNW 5.8 mph - N/A Fog Fog
5:36 AM 51.8 °F 51.8 °F 100% 29.97 in 1.2 mi NNW 4.6 mph - N/A   Partly Cloudy
5:49 AM 51.8 °F 51.8 °F 100% 29.98 in 2.5 mi NNW 4.6 mph - N/A   Clear
5:52 AM 52.0 °F 52.0 °F 100% 29.97 in 2.0 mi NW 4.6 mph - N/A   Clear
6:40 AM 53.6 °F 53.6 °F 100% 29.98 in 3.0 mi NW 8.1 mph - N/A   Clear
6:52 AM 54.0 °F 54.0 °F 100% 29.99 in 3.0 mi NNW 6.9 mph - N/A   Clear
6:59 AM 53.6 °F 53.6 °F 100% 29.99 in 2.5 mi NNW 5.8 mph - N/A   Clear
7:10 AM 55.4 °F 55.4 °F 100% 29.99 in 4.0 mi NNW 6.9 mph - N/A   Clear
7:52 AM 57.0 °F 55.9 °F 96% 29.99 in 4.0 mi NNW 5.8 mph - N/A   Clear
8:52 AM 61.0 °F 55.9 °F 83% 30.01 in 10.0 mi North 5.8 mph - N/A   Clear
9:52 AM 66.0 °F 55.9 °F 70% 30.00 in 10.0 mi North 5.8 mph - N/A   Clear
10:52 AM 68.0 °F 55.4 °F 64% 30.00 in 10.0 mi NNE 6.9 mph - N/A   Clear
11:52 AM 68.0 °F 55.9 °F 65% 29.99 in 10.0 mi North 9.2 mph - N/A   Clear
12:52 PM 70.0 °F 55.9 °F 61% 30.00 in 10.0 mi North 8.1 mph - N/A   Clear
2:52 PM 71.1 °F 55.0 °F 57% 29.97 in 10.0 mi NE 6.9 mph - N/A   Clear
3:52 PM 71.1 °F 57.9 °F 63% 29.95 in 10.0 mi North 6.9 mph - N/A   Clear
4:52 PM 73.9 °F 57.9 °F 57% 29.94 in 10.0 mi North 5.8 mph - N/A   Clear
5:52 PM 72.0 °F 57.0 °F 59% 29.94 in 10.0 mi North 12.7 mph - N/A   Clear
6:52 PM 71.1 °F 55.9 °F 59% 29.94 in 10.0 mi North 8.1 mph - N/A   Clear
7:52 PM 69.1 °F 57.0 °F 65% 29.94 in 10.0 mi North 6.9 mph - N/A   Clear
8:52 PM 64.9 °F 57.0 °F 75% 29.95 in 10.0 mi NNE 3.5 mph - N/A   Clear
9:52 PM 61.0 °F 57.0 °F 87% 29.94 in 10.0 mi North 3.5 mph - N/A   Clear
10:52 PM 61.0 °F 55.9 °F 83% 29.96 in 10.0 mi Calm Calm - N/A   Clear
11:52 PM 60.1 °F 57.0 °F 90% 29.95 in 10.0 mi Calm Calm - N/A   Clear